This is the latest recevied weather packets stored in our database for station/object N5CSU. If no packets are shown the sender has not sent any weather packets the latest 10 day(s).
| Time | Temp. | Humidity | Pressure | Rain* | Wind** | Luminosity | Snow |
|---|---|---|---|---|---|---|---|
| 1777754936 | 23.89° C | 36% | 1020 hPa | 0 mm | - | 14 W/m² | - |
| 1777754633 | 23.89° C | 35% | 1020.3 hPa | 0 mm | - | 20 W/m² | - |
| 1777754331 | 23.89° C | 33% | 1020.2 hPa | 0 mm | - | 10 W/m² | - |
| 1777754028 | 23.89° C | 34% | 1020.2 hPa | 0 mm | - | 12 W/m² | - |
| 1777753724 | 23.89° C | 34% | 1020.2 hPa | 0 mm | - | 10 W/m² | - |
| 1777753421 | 23.89° C | 33% | 1020.2 hPa | 0 mm | - | 10 W/m² | - |
| 1777753119 | 23.89° C | 36% | 1020.4 hPa | 0 mm | - | 10 W/m² | - |
| 1777752815 | 23.89° C | 37% | 1020.2 hPa | 0 mm | - | 10 W/m² | - |
| 1777752511 | 23.33° C | 38% | 1020.3 hPa | 0 mm | - | 10 W/m² | - |
| 1777752207 | 23.89° C | 36% | 1020.5 hPa | 0 mm | - | 10 W/m² | - |
| 1777751905 | 23.89° C | 34% | 1020.7 hPa | 0 mm | - | 10 W/m² | - |
| 1777751602 | 23.89° C | 37% | 1020.6 hPa | 0 mm | - | 11 W/m² | - |
| 1777751299 | 23.89° C | 36% | 1020.6 hPa | 0 mm | - | 11 W/m² | - |
| 1777750996 | 23.89° C | 38% | 1020.7 hPa | 0 mm | - | 11 W/m² | - |
| 1777750691 | 23.89° C | 36% | 1020.7 hPa | 0 mm | - | 20 W/m² | - |
| 1777750389 | 23.89° C | 34% | 1020.7 hPa | 0 mm | - | 77 W/m² | - |
| 1777750084 | 23.33° C | 38% | 1020.9 hPa | 0 mm | - | 88 W/m² | - |
| 1777749781 | 23.33° C | 38% | 1020.8 hPa | 0 mm | - | 132 W/m² | - |
| 1777749478 | 23.33° C | 34% | 1021.1 hPa | 0 mm | - | 127 W/m² | - |
| 1777749176 | 23.89° C | 36% | 1021.1 hPa | 0 mm | - | 182 W/m² | - |
| 1777748873 | 23.33° C | 37% | 1021.2 hPa | 0 mm | - | 13 W/m² | - |
| 1777748570 | 23.33° C | 36% | 1021.1 hPa | 0 mm | - | 38 W/m² | - |
| 1777748265 | 23.33° C | 39% | 1021.2 hPa | 0 mm | - | 12 W/m² | - |
| 1777747961 | 23.33° C | 40% | 1021.1 hPa | 0 mm | - | 12 W/m² | - |
| 1777747657 | 23.33° C | 35% | 1021.4 hPa | 0 mm | - | 56 W/m² | - |
* Rain latest hour (hover to see other rain measurements)
** Current wind speed in m/s (hover to see current wind gust speed)